Miscellaneous Local Product
Issued by NWS Hastings, NE

Home | Current Version | Previous Version | Text Only | Print | Product List | Glossary Off
Versions: 1 2 3 4 5 6 7 8 9 10 11 12 13 14 15 16 17 18 19 20 21 22 23 24 25 26 27 28 29 30 31 32 33 34 35 36 37 38 39 40 41 42 43 44 45 46 47 48 49 50

148
AXUS43 KGID 131302
MISGRI

GID CWA HOURLY WEATHER ROUNDUP
NATIONAL WEATHER SERVICE HASTINGS NE
700 AM CST SAT FEB 13 2016

NOTE: "FAIR" INDICATES FEW OR NO CLOUDS BELOW 12,000 FEET WITH NO
SIGNIFICANT WEATHER AND/OR OBSTRUCTIONS TO VISIBILITY.

...SOUTH CENTRAL NEBRASKA...

CITY           SKY/WX    TMP DP  RH WIND       PRES   REMARKS
GRAND ISLAND   CLOUDY    14   7  73 SE13      30.47F WCI   0
HASTINGS       CLOUDY    15   6  67 SE12      30.44F WCI   2
KEARNEY        CLOUDY    16  10  79 SE14      30.41F WCI   1
ORD            CLOUDY    15   6  67 SE10      30.40F WCI   2
YORK           CLOUDY    14   7  73 SE9       30.50F WCI   2
AURORA         CLOUDY    15   8  73 SE13      30.47F WCI   0
LEXINGTON      CLOUDY    20  15  81 SE10      30.37F WCI   9
HOLDREGE       CLOUDY    19  16  88 SE13      30.39F WCI   6
HEBRON         CLOUDY    18  10  71 E8        30.51F WCI   8

...NEBRASKA PANHANDLE...

CITY           SKY/WX    TMP DP  RH WIND       PRES   REMARKS
CHADRON        CLOUDY    31  28  89 S3        30.06F
ALLIANCE       CLOUDY    31  30  96 S15       30.08F FOG     WCI  20
SCOTTSBLUFF    CLOUDY    30  28  92 SE8       30.08F WCI  22
SIDNEY         CLOUDY    30  29  96 S15G21    30.12F WCI  19

...WESTERN AND NORTH CENTRAL NEBRASKA...

CITY           SKY/WX    TMP DP  RH WIND       PRES   REMARKS
VALENTINE      CLOUDY    22  19  89 S18       30.23S WCI   7
AINSWORTH      CLOUDY    19  17  90 SE17G25   30.28F WCI   4
ONEILL         CLOUDY    15  10  82 SE13G18   30.41F WCI   1
BROKEN BOW     CLOUDY    17  12  80 SE16G23   30.35F WCI   2
IMPERIAL       CLOUDY    27  25  92 S21       30.23F WCI  13
NORTH PLATTE   CLOUDY    22  19  89 SE10      30.28F WCI  11
MCCOOK         CLOUDY    22  20  92 SE14      30.34S WCI   9

...EASTERN NEBRASKA...

CITY           SKY/WX    TMP DP  RH WIND       PRES   REMARKS
NORFOLK        CLOUDY    12   3  67 E10       30.49F WCI  -1
SO SIOUX CITY  CLOUDY     6  -3  66 SE9       30.59F WCI  -8
TEKAMAH        CLOUDY     8   0  69 E8        30.60F WCI  -4
COLUMBUS       CLOUDY    12   0  57 E7        30.52F WCI   2
ALBION         CLOUDY    13   8  81 SE10      30.46F WCI   0
OMAHA EPPLEY   CLOUDY    10   0  63 E8        30.62F WCI  -2
OFFUTT AFB     CLOUDY    11   1  63 E5        30.60F WCI   2
MILLARD        CLOUDY    11  -1  58 CALM      30.60S
LINCOLN        CLOUDY    15   6  67 E7        30.56F WCI   5
NEBRASKA CITY  CLOUDY    13   3  64 E6        30.58F WCI   4
BEATRICE       CLOUDY    16   4  58 E8        30.55F WCI   5
FALLS CITY     CLOUDY    15   4  61 E8        30.59F WCI   4

...NORTHERN KANSAS...

CITY           SKY/WX    TMP DP  RH WIND       PRES   REMARKS
GOODLAND       FOG       25  24  96 S22       30.24S VSB 1   WCI  10
HILL CITY      CLOUDY    21  16  81 SE10      30.41F WCI  10
NORTON         CLOUDY    19  14  79 SE14      30.37  WCI   6
PHILLIPSBURG   CLOUDY    21  16  79 SE9       30.44F WCI  11
SMITH CENTER   CLOUDY    19  14  79 E14       30.46S WCI   6
BELOIT         CLOUDY    19   7  58 E10       30.49F WCI   8
HAYS           CLOUDY    19   7  58 SE10      30.43S WCI   8
RUSSELL        CLOUDY    19  15  84 E8        30.43S WCI   9
CONCORDIA      CLOUDY    19   7  59 E12       30.50F WCI   7
SALINA         CLOUDY    21  10  62 E9        30.51F WCI  11
TOPEKA         CLOUDY    20   4  50 E9        30.60S WCI   9



USA.gov is the U.S. government's official web portal to all federal, state and local government web resources and services.